Flag for Germany Weather past 2 weeks in Wesel, North Rhine-Westphalia, Germany

Now
66 °F

Passing clouds.


Feels Like: 66 °F
Forecast: 54 / 80 °F
Wind: 8 mph from Southwest

Location: Niederrhein

Current Time: Aug 4, 2015 at 6:33:29 PM

Latest Report: Aug 4, 2015 at 5:50 PM


Visibility: N/A

Pressure: 29.98 "Hg

Humidity: 83%

Dew point: 61 °F

Location of WeselLocation

Historic Weather in Wesel — Graph

°F

Wesel temperature yesterday

Maximum temperature yesterday: 91 °F (at 2:50 PM)
Minimum temperature yesterday: 64 °F (at 4:50 AM)
Average temperature yesterday: 81 °F

Past Weeks' High & Low Weather Summary

 TemperatureHumidityPressure
High91 °F (Aug 3, 2:50 PM)100% (Jul 26, 6:20 AM)30.15 "Hg (Jul 26, 6:20 AM)
Low45 °F (Jul 31, 5:20 AM)26% (Aug 3, 5:20 PM)29.47 "Hg (Jul 25, 6:20 AM)
Average66 °F68%29.89 "Hg
* Reported Jul 20 5:20 PM — Aug 4 5:20 PM, Wesel, Weather by CustomWeather, © 2015

Note: Actual official high and low records may vary slightly from our data, if they occured in-between our weather recording intervals... More about our weather records

Advertising

Wesel weather history for previous 24 hours

 ConditionsComfort  
Time TempWeatherWind HumidityBarometerVisibility
5:20 PM
Tue, Aug 4
66 °FBroken clouds.9 mph78%30.01 "HgN/A
4:50 PM66 °FBroken clouds.10 mph88%29.98 "HgN/A
4:20 PM63 °FPartly sunny.8 mph94%29.98 "HgN/A
3:50 PM63 °FPartly sunny.10 mph88%29.98 "HgN/A
3:20 PM63 °FPartly sunny.13 mph88%29.98 "HgN/A
2:50 PM63 °FPartly sunny.10 mph94%29.95 "Hg6 mi
2:20 PM63 °FLight rain. Partly sunny.12 mph100%29.95 "Hg4 mi
1:50 PM64 °FLight rain. Partly sunny.12 mph94%29.95 "Hg4 mi
1:20 PM64 °FPartly sunny.12 mph100%29.92 "Hg5 mi
12:50 PM66 °FLight rain. Fog.6 mph100%29.92 "Hg2 mi
12:20 PM66 °FLight rain. Fog.6 mph100%29.92 "Hg3 mi
11:50 AM66 °FLight rain. Fog.6 mph100%29.89 "Hg4 mi
11:20 AM66 °FDrizzle. Fog.7 mph100%29.89 "Hg1 mi
10:50 AM66 °FLight rain. Fog.9 mph100%29.86 "Hg1 mi
10:20 AM66 °FLight rain. Scattered clouds.7 mph100%29.86 "Hg5 mi
9:50 AM66 °FPassing clouds.6 mph100%29.86 "HgN/A
9:20 AM66 °FScattered clouds.6 mph94%29.83 "HgN/A
8:50 AM66 °FScattered clouds.3 mph94%29.86 "Hg4 mi
8:20 AM66 °FPartly sunny.No wind94%29.86 "Hg6 mi
7:50 AM66 °FClear.2 mph94%29.83 "Hg10 mi
7:20 AM64 °FClear.3 mph100%29.83 "Hg10 mi
6:50 AM64 °FThundershowers. Passing clouds.3 mph94%29.83 "Hg6 mi
6:20 AM66 °FThunderstorms. Passing clouds.3 mph88%29.83 "Hg6 mi
5:50 AM70 °FClear.3 mph73%29.80 "Hg10 mi
5:20 AM70 °FClear.3 mph73%29.80 "Hg10 mi
4:50 AM70 °FClear.5 mph69%29.80 "Hg10 mi
11:50 PM
Mon, Aug 3
73 °FPassing clouds.7 mph65%29.89 "HgN/A
11:20 PM73 °FPassing clouds.6 mph69%29.89 "HgN/A
10:50 PM75 °FSunny.1 mph65%29.92 "Hg10 mi
10:20 PM77 °FSunny.No wind65%29.92 "Hg10 mi
9:50 PM79 °FSunny.No wind61%29.92 "Hg10 mi
9:20 PM77 °FSunny.No wind65%29.89 "Hg10 mi
8:50 PM81 °FSunny.No wind58%29.89 "Hg10 mi
8:20 PM82 °FPassing clouds.5 mph51%29.89 "HgN/A
7:50 PM88 °FSunny.8 mph29%29.89 "Hg10 mi
7:20 PM90 °FSunny.8 mph27%29.89 "Hg10 mi
6:50 PM90 °FPassing clouds.10 mph27%29.89 "HgN/A
6:20 PM90 °FPassing clouds.10 mph27%29.89 "HgN/A
Weather by CustomWeather, © 2015

See weather overviewHow to use our weather pages